User: anonymous   Login
Location: Columbia
(38.9520°N, 92.3340°W)
Time: 12:13:01
(UTC-05:00)
Language:

Cosmos 2100 Rocket - Orbit

View from above orbital plane
View from above orbital plane
View from above satellite
View from above satellite

Ground track
Ground track

The orbit data is extracted from the following two-line orbital elements,

1 20805U 90083B   18170.96359279 -.00000051 +00000-0 -68173-4 0  9999
2 20805 082.9358 147.9138 0032111 086.4067 326.4834 13.75846404393708
Epoch (UTC): 19 June 2018 23:07:34
Eccentricity: 0.0032111
inclination: 82.9358°
perigee height: 955 km
apogee height: 1002 km
right ascension of ascending node: 147.9138°
argument of perigee: 86.4067°
revolutions per day: 13.75846404
mean anomaly at epoch: 326.4834°
orbit number at epoch: 39370

The dashed part of the orbit path shows where the satellite is in the earth's shadow,  

DLR